Theta_e
351 348 344 335 335 338 339 343 342 344 344 344 344 343 343 343 343 341 339 337 336 337 339 340 340 338 337 338 338 339 337 337 336 337 339 340 342 342 341 341 341 340 340 338 337 337 337 337 336 336 336 335 334 334 333 333 332 332 332 332 331 332 335 336 337 338 339 339 340 340 339 340 340 340 340 340 340 339 340 340 340 339 339 338 337
351 348 344 336 335 337 337 341 340 344 344 345 345 344 344 343 343 341 340 337 338 339 340 340 339 338 337 338 339 339 337 338 339 340 340 340 341 341 341 341 341 340 339 337 337 337 336 337 336 336 336 336 333 331 331 333 333 332 331 330 330 332 334 335 336 338 338 338 339 339 339 339 340 340 340 340 339 339 339 339 339 339 338 336 336
350 348 346 338 336 337 337 339 340 343 343 345 344 344 344 343 343 341 340 338 339 340 338 338 338 339 339 340 339 338 338 340 341 341 340 340 341 341 341 340 341 340 337 337 337 337 337 337 336 336 336 337 335 330 327 328 329 331 332 331 331 332 334 334 335 337 338 338 338 339 339 339 339 339 339 339 338 338 338 337 336 336 335 334 335
349 347 345 339 336 337 337 339 340 342 343 344 344 344 344 343 343 341 340 339 340 338 337 337 338 339 340 340 338 338 339 341 341 340 340 340 340 340 340 341 341 339 337 338 338 337 337 337 337 337 336 337 337 334 329 323 323 329 333 333 332 333 334 334 334 335 337 338 338 339 340 340 339 339 339 339 338 338 337 335 334 333 331 332 334
349 346 345 341 339 339 337 339 340 341 342 343 343 344 343 343 342 341 340 339 339 337 337 339 340 340 339 339 338 338 339 341 339 339 339 339 340 340 340 340 340 338 338 339 338 337 337 338 337 337 336 337 337 337 334 327 321 325 332 332 332 333 333 333 333 334 335 336 337 338 339 339 340 340 340 339 338 336 335 335 335 334 331 331 332
348 346 344 343 343 341 338 339 339 340 341 342 343 343 343 342 341 341 340 340 340 339 340 340 341 341 340 339 340 340 340 339 338 339 339 340 341 341 340 339 339 338 338 339 338 338 337 336 335 336 336 338 338 337 336 331 323 322 328 331 331 332 333 333 332 333 334 335 335 336 337 337 339 339 339 338 337 335 334 333 335 335 333 331 331
348 346 344 343 344 342 338 337 337 339 340 341 342 342 342 342 341 341 341 341 341 342 341 340 341 340 340 341 341 341 339 338 339 341 341 342 343 342 339 338 339 338 339 340 339 338 337 337 336 337 337 337 337 337 337 335 327 321 323 327 330 331 331 331 331 333 334 335 334 335 336 336 337 338 338 338 337 335 333 332 333 334 334 332 331
347 346 345 343 343 341 339 337 336 337 337 339 341 341 341 341 342 342 342 342 342 341 339 340 341 341 341 341 341 340 339 340 341 342 342 342 342 341 337 337 339 339 340 340 340 340 339 339 339 338 337 337 337 337 337 337 331 323 320 322 325 329 331 331 330 332 334 335 334 333 334 335 335 336 337 337 336 335 335 332 332 333 334 333 331
347 346 344 344 342 339 339 337 336 335 334 337 338 339 341 342 342 342 342 342 341 340 339 338 338 341 341 341 340 338 339 341 341 341 342 342 341 339 335 338 340 340 341 340 341 340 340 340 340 339 338 337 337 337 336 336 333 327 322 319 320 323 327 329 329 330 332 334 334 334 334 334 334 334 334 335 334 334 335 334 333 332 332 332 332
346 346 344 345 341 336 336 337 335 334 334 336 337 338 340 342 343 343 342 341 339 339 339 336 336 338 339 339 338 336 337 340 341 341 341 341 340 337 336 339 340 340 341 341 340 340 340 340 339 339 338 337 336 336 335 335 334 330 324 321 319 319 323 327 329 330 332 332 333 334 333 334 334 334 334 334 333 332 333 333 332 331 331 331 332
346 346 345 344 341 335 333 334 333 332 335 338 338 338 340 340 341 341 339 337 336 335 335 335 337 338 339 340 338 337 337 338 338 338 339 341 340 338 339 341 340 340 340 340 340 339 340 339 339 338 336 335 335 334 334 334 333 331 326 322 320 321 326 329 331 332 332 331 331 333 333 334 333 333 333 332 331 330 331 331 330 330 331 331 331
346 346 345 344 341 336 332 333 332 332 338 340 339 338 339 339 339 338 336 334 334 335 336 339 340 340 341 342 341 339 337 336 336 337 339 340 339 338 339 340 340 339 339 339 339 339 339 339 338 336 334 334 334 334 334 333 332 330 326 322 320 324 330 331 332 332 333 333 334 334 333 333 332 331 330 330 330 330 330 329 329 329 330 330 330
346 346 345 344 341 338 334 334 335 337 340 340 338 336 338 339 339 337 336 337 338 339 340 340 341 342 343 343 342 340 337 336 337 337 337 338 337 336 338 340 339 339 339 339 339 339 339 338 336 334 334 334 335 334 333 332 331 328 326 322 320 326 331 331 332 332 332 334 334 334 333 332 331 330 330 330 330 330 329 329 329 328 329 329 328
346 346 344 342 341 339 336 337 338 340 341 337 334 334 336 338 337 337 338 339 340 340 340 341 342 342 343 343 341 339 338 337 337 336 336 336 336 335 337 339 339 339 339 339 339 339 338 336 334 334 334 335 335 334 332 331 329 328 326 322 322 327 331 331 331 331 332 333 334 334 333 332 331 330 330 330 330 330 329 329 328 328 328 328 328
346 346 344 342 341 340 339 338 339 340 338 334 333 333 334 335 336 337 338 339 339 339 339 340 341 342 342 340 338 338 338 336 336 336 335 334 334 334 336 339 339 339 339 338 339 338 336 335 334 334 334 335 335 333 332 330 329 328 327 324 324 329 332 332 332 332 334 335 335 334 333 332 330 330 330 329 329 329 329 328 328 327 327 328 328
346 345 344 342 341 341 341 339 338 339 336 333 333 333 332 333 334 335 336 335 336 337 339 339 340 340 339 336 335 336 336 336 336 335 335 333 332 333 335 338 339 339 338 338 338 336 335 334 334 334 334 335 334 333 333 331 329 328 328 326 326 330 332 332 333 333 334 335 335 334 333 331 330 330 329 329 328 329 328 328 327 327 327 327 327
346 345 344 343 341 341 341 340 338 338 335 333 333 332 331 332 333 334 334 334 334 335 337 338 339 338 336 334 333 334 335 336 335 336 335 333 332 332 334 336 338 338 338 337 336 335 334 333 333 334 334 335 334 334 333 332 331 329 329 328 327 328 332 333 333 333 333 334 334 334 333 331 329 329 329 329 328 328 328 327 327 327 327 327 327
345 344 344 343 342 341 342 340 338 338 335 334 335 333 332 333 334 335 336 336 336 337 337 338 338 338 336 335 333 333 334 334 334 335 336 335 333 331 331 334 337 337 336 335 334 333 332 332 333 333 334 335 335 334 333 333 332 330 329 329 328 328 332 335 334 333 333 334 335 334 332 330 329 330 330 329 328 327 327 327 327 327 327 327 327
344 344 343 342 342 341 342 340 340 340 337 337 336 333 333 335 335 336 337 337 337 338 339 338 338 338 337 336 334 333 333 333 333 334 336 336 335 332 330 330 334 336 334 333 332 331 331 331 332 333 333 334 334 334 334 333 333 332 330 330 329 331 335 336 335 334 335 335 335 333 330 329 330 330 330 329 328 327 327 327 327 327 327 327 327
344 344 343 342 342 341 341 341 341 341 341 340 339 335 334 335 335 336 336 335 337 339 339 339 338 338 337 337 335 335 335 334 333 334 335 335 335 334 331 330 332 333 333 332 331 330 330 330 330 331 333 334 334 334 334 334 333 333 331 330 331 334 338 336 336 335 335 335 334 332 329 330 330 330 329 328 327 327 327 327 327 327 327 326 326
344 344 344 342 342 342 341 341 342 343 343 343 342 340 336 335 335 336 336 335 337 338 338 337 337 337 337 336 336 338 338 337 336 335 334 335 336 335 334 333 332 332 332 331 330 329 329 329 329 330 331 333 334 334 334 334 333 333 332 331 333 337 337 336 336 335 334 334 333 331 330 331 330 329 329 328 328 327 327 327 327 327 327 326 326
345 344 344 343 343 342 342 341 343 344 345 343 343 343 339 338 337 336 335 335 337 337 337 336 337 338 337 337 338 339 340 339 339 337 336 336 337 336 335 335 334 333 332 331 330 329 329 328 328 329 330 332 333 334 334 334 334 333 333 333 336 337 337 337 336 334 333 333 332 331 331 330 329 329 329 328 328 327 326 326 326 326 326 326 326
345 345 344 343 343 342 342 343 344 344 344 344 343 342 341 341 339 336 335 335 335 337 338 338 339 339 338 339 340 340 340 339 338 337 338 337 337 336 335 335 334 334 332 331 329 329 329 328 328 328 329 330 333 335 335 335 335 333 333 335 337 337 337 337 335 335 334 333 332 330 330 330 329 329 329 328 328 328 327 325 325 326 326 326 326
344 343 341 343 344 344 343 343 345 345 343 343 342 341 342 341 339 336 336 337 337 338 340 340 340 340 340 340 340 340 339 338 337 337 337 337 337 335 334 334 333 333 332 331 330 329 328 328 327 327 328 330 333 336 335 336 336 335 336 337 337 337 337 336 336 336 334 334 333 330 330 330 330 329 329 328 327 327 326 325 325 326 325 325 325
343 342 339 342 345 343 343 343 344 345 343 343 342 342 342 341 338 336 338 339 339 339 340 340 340 340 340 340 338 338 336 335 336 336 335 335 335 334 334 333 333 332 332 332 331 329 329 329 328 329 330 331 333 334 334 334 335 337 338 337 336 336 336 335 336 336 334 334 332 331 332 332 331 331 329 327 326 325 325 325 325 324 323 323 325
341 340 339 342 343 343 343 343 343 344 343 343 343 342 342 342 338 339 341 340 340 340 339 339 340 340 339 338 337 336 335 335 335 334 334 334 334 334 334 332 332 332 332 334 333 331 332 333 332 331 332 331 332 333 334 334 334 335 337 337 336 336 336 335 335 335 335 334 332 332 333 333 333 332 328 324 324 326 326 325 324 324 323 322 323
338 338 338 341 342 343 343 343 343 343 342 341 342 342 342 340 338 339 341 341 341 340 340 339 339 339 339 339 339 338 336 335 335 334 334 334 334 334 334 333 333 333 334 334 334 334 333 332 332 332 331 331 331 332 332 333 333 334 336 337 336 336 335 335 335 335 334 334 332 332 333 333 333 332 327 321 322 325 325 324 324 325 324 322 321
337 337 340 341 342 343 343 343 343 343 342 341 342 342 341 339 337 339 340 340 340 340 340 340 340 340 340 340 341 340 337 335 335 335 335 335 335 335 334 334 334 334 334 334 334 334 332 331 332 333 332 332 332 331 331 332 332 333 335 336 336 336 336 335 336 335 334 334 333 332 332 332 331 331 327 324 324 324 324 324 324 325 323 320 321
338 337 340 341 342 343 343 343 343 343 342 341 342 341 340 339 337 339 341 339 339 339 338 338 340 339 339 339 340 340 338 336 336 335 335 336 335 335 335 335 334 334 334 335 334 334 333 332 334 334 333 333 333 332 331 331 331 332 334 335 336 336 336 336 336 336 334 335 334 332 332 331 331 330 328 327 327 325 324 322 323 323 319 315 316
337 338 340 341 341 342 342 343 342 342 342 342 342 340 341 339 337 338 339 339 339 338 335 334 337 337 337 337 338 339 338 337 336 335 334 334 335 335 335 335 335 335 335 334 332 333 334 334 335 335 334 334 334 333 333 332 331 332 334 335 335 336 336 336 336 336 336 336 334 333 333 332 331 330 330 330 329 327 324 320 321 322 319 317 318
337 339 340 340 340 340 341 342 341 341 341 341 341 340 340 338 337 337 338 339 338 337 335 335 337 336 337 338 338 338 338 337 336 335 334 334 334 335 335 335 335 335 335 333 330 332 335 336 336 335 335 335 334 334 335 334 332 332 333 334 335 335 336 335 335 336 336 336 334 333 333 332 331 330 330 330 331 329 326 322 322 323 322 322 323
337 336 337 339 340 340 341 341 341 341 340 340 340 340 338 337 336 336 337 336 334 335 335 336 339 338 337 339 339 338 338 337 336 336 335 334 334 334 334 335 334 334 335 335 333 333 336 336 335 335 335 336 335 335 335 336 335 335 334 335 335 335 335 335 335 335 335 334 332 332 332 332 330 329 330 330 330 330 328 326 324 323 322 323 324
337 333 334 336 338 340 341 341 340 339 339 338 339 339 338 337 336 334 334 332 331 333 335 335 338 338 338 339 339 339 338 337 336 336 335 334 334 335 334 334 335 335 335 334 334 335 335 335 334 334 335 336 335 335 335 335 336 336 335 335 335 334 335 334 335 335 335 334 332 331 332 332 331 330 330 329 329 329 329 329 327 324 322 324 325
338 337 336 338 339 341 341 340 339 338 338 337 337 338 337 336 335 333 331 330 331 333 335 336 336 337 337 338 339 339 338 337 336 335 334 335 335 335 335 335 334 334 334 334 334 335 335 334 334 334 335 335 335 335 335 335 335 335 336 336 335 336 336 335 335 334 334 333 332 331 332 333 333 332 331 329 328 328 329 329 329 326 324 326 326
338 339 339 340 341 341 340 340 338 338 338 336 336 337 336 335 334 333 331 330 332 333 335 336 336 336 337 338 339 339 338 337 336 336 335 335 336 336 336 335 335 334 334 334 335 335 334 334 334 334 334 334 335 335 334 335 335 335 335 336 336 336 336 335 334 333 333 333 333 333 334 333 333 333 332 331 329 327 327 328 328 328 327 328 328
338 338 340 340 340 340 339 339 338 337 336 334 335 336 335 335 332 331 332 332 334 335 335 336 336 337 337 338 338 338 338 337 336 336 336 336 336 337 336 335 334 334 334 334 334 334 334 334 334 333 333 333 334 334 334 334 333 334 334 335 335 335 335 335 333 332 333 332 333 333 334 333 334 333 332 332 330 327 326 327 328 328 328 328 328
338 338 340 340 340 340 339 339 338 337 335 334 335 335 335 334 331 331 333 332 334 335 335 336 336 337 337 338 338 338 338 337 336 337 337 337 337 337 337 335 334 335 334 334 334 334 334 333 333 333 333 333 334 333 333 333 333 333 334 334 335 334 335 333 331 332 332 333 333 333 334 333 333 332 332 333 331 328 327 326 327 327 328 328 328
339 339 340 341 341 340 339 338 337 337 336 334 334 334 334 334 332 333 333 332 334 335 335 336 337 337 337 338 338 338 337 336 336 337 338 337 337 337 336 334 334 334 334 334 334 334 334 333 332 332 333 333 333 333 333 333 332 333 333 334 334 334 334 333 332 332 332 332 333 333 334 332 332 333 333 333 331 328 328 327 326 327 327 327 328
339 339 340 341 341 339 338 337 336 336 335 334 333 333 333 334 334 333 333 333 334 336 335 336 336 337 337 337 337 337 336 335 335 337 338 337 337 336 335 334 334 334 334 334 334 334 334 333 333 332 332 332 332 332 333 333 332 332 332 333 333 334 334 333 333 333 332 332 332 332 333 332 333 333 333 333 331 330 329 329 328 328 327 326 327
338 339 340 340 341 339 338 337 336 336 335 334 333 333 332 332 333 333 333 334 334 335 336 336 336 337 337 336 335 335 335 336 337 338 338 337 337 336 335 334 334 335 335 335 334 335 335 334 333 332 331 331 331 331 332 332 332 332 332 332 333 333 333 333 333 333 332 332 332 332 332 332 332 332 333 332 332 331 331 330 330 329 328 326 326
338 339 339 340 340 338 338 337 337 336 335 334 333 333 332 332 333 332 333 334 334 335 336 336 336 337 337 337 336 336 337 337 338 338 337 337 336 336 336 335 335 335 335 335 335 335 335 334 333 332 331 331 331 331 331 332 332 332 333 332 333 333 333 333 332 333 332 331 331 332 332 332 332 332 332 331 331 331 330 331 331 330 330 328 327
339 339 339 339 339 338 337 336 336 335 334 334 334 333 333 333 333 332 333 334 335 335 336 336 336 336 338 337 337 338 338 337 336 336 337 336 336 336 336 335 335 335 335 335 335 335 334 334 333 333 332 331 331 331 331 332 332 332 333 333 332 332 332 332 331 332 332 331 331 331 331 331 331 332 331 330 331 331 330 331 330 330 330 329 329
339 339 339 339 339 338 337 336 335 335 334 334 334 334 333 333 333 333 333 334 335 335 335 336 337 337 337 337 337 337 337 336 335 335 336 336 335 335 335 335 335 334 335 335 335 334 334 334 334 333 332 332 332 332 332 332 332 332 333 332 332 331 331 330 330 330 331 331 331 330 331 331 331 331 331 330 331 330 330 330 330 330 330 329 329
339 339 339 339 339 338 337 335 334 335 335 334 334 333 333 332 333 333 334 335 335 335 336 336 336 337 337 337 337 336 336 336 336 335 335 335 335 335 335 334 334 334 334 334 334 334 334 334 334 333 332 332 332 332 332 332 332 332 332 331 332 331 331 330 329 329 330 330 330 331 330 331 331 331 331 330 331 331 330 330 330 330 330 330 330
339 338 338 339 338 338 338 335 333 334 334 333 333 333 331 331 333 333 334 334 334 335 336 336 336 336 336 336 336 335 335 335 335 334 333 333 334 335 335 335 334 334 334 333 334 334 333 333 334 333 333 333 332 331 332 332 332 332 331 332 331 331 332 331 329 329 329 330 330 330 330 330 330 330 330 331 331 330 330 330 330 330 330 329 329
339 338 338 338 337 337 338 336 333 334 333 331 331 332 331 331 333 333 333 333 334 335 335 335 335 335 335 335 335 334 334 334 333 333 333 333 333 334 335 334 334 334 333 333 333 333 333 333 333 333 333 332 332 331 332 332 332 332 332 333 332 331 332 330 330 329 329 330 330 330 330 330 330 330 330 330 330 330 329 329 329 329 328 328 328
338 338 338 337 337 337 336 336 335 335 333 331 331 332 331 333 333 333 333 334 334 335 335 334 335 335 335 335 334 334 333 333 333 332 333 332 332 333 334 334 334 334 333 333 334 334 334 333 333 333 333 332 332 331 331 331 332 332 331 332 333 332 332 330 330 329 329 329 329 329 329 329 329 329 329 329 329 329 328 328 328 327 327 327 327
338 338 337 336 337 337 336 335 335 336 333 331 331 331 331 333 333 333 333 334 334 334 335 335 335 335 335 334 333 333 333 333 332 332 332 332 332 332 333 333 333 333 333 334 334 334 334 334 333 333 333 332 332 331 331 331 331 331 331 332 332 332 331 331 331 329 329 329 329 329 329 328 328 328 328 327 327 327 326 326 327 326 327 327 327
335 337 337 336 336 336 336 335 335 335 333 332 332 332 332 332 332 334 335 336 335 334 334 334 334 334 334 333 332 332 332 332 332 332 332 331 331 330 331 331 331 330 330 330 332 332 333 333 333 333 333 333 332 332 332 331 331 331 331 331 330 330 331 332 331 330 329 329 329 329 329 329 327 326 326 326 325 326 325 325 325 326 326 326 326
333 336 336 336 335 335 335 334 334 335 334 334 334 334 335 333 333 336 337 336 335 333 333 334 334 333 332 332 332 331 331 332 331 331 330 330 330 330 329 329 329 329 328 328 328 329 330 330 330 331 333 333 333 332 331 331 330 330 331 330 329 329 330 331 331 330 330 330 329 329 329 329 327 325 325 325 325 325 325 325 325 325 325 325 325
335 336 336 335 335 334 334 334 334 334 334 334 334 334 336 335 336 338 337 334 333 333 333 333 333 332 332 332 331 331 330 330 331 330 330 330 330 330 329 328 329 328 327 328 327 327 327 327 328 329 331 332 333 332 331 330 329 329 330 330 328 329 329 330 330 330 330 330 329 329 329 328 327 325 324 324 325 325 325 325 325 325 324 325 325
Wind_Speed
22 23 27 32 30 28 26 26 27 28 29 30 32 32 32 30 30 30 29 29 28 27 27 27 26 28 28 25 23 22 21 21 21 21 20 20 19 19 19 19 19 19 19 20 20 19 19 19 19 18 18 17 16 17 16 16 15 15 16 16 19 19 16 16 17 17 19 20 21 21 21 21 20 20 19 19 20 19 19 18 18 18 17 17 17
25 25 27 31 30 29 28 27 27 29 30 31 32 32 31 30 30 30 30 29 27 27 28 28 27 27 26 24 23 22 22 22 22 21 19 19 18 18 19 19 19 19 21 21 20 20 20 20 19 19 18 18 18 18 17 16 16 16 17 18 19 17 15 15 16 17 21 22 22 22 23 22 20 20 19 19 19 19 19 18 18 18 16 16 16
26 25 25 30 30 29 28 27 28 29 30 31 32 32 31 31 31 30 30 28 27 27 28 28 27 25 24 23 23 22 23 24 22 21 20 19 18 18 19 19 19 20 22 21 20 21 21 20 20 19 18 17 17 19 18 16 17 18 17 17 17 16 16 15 15 17 20 21 22 22 22 22 21 20 20 19 19 19 18 17 18 17 16 16 16
25 25 25 29 30 29 28 28 28 29 30 31 31 31 31 31 31 30 30 28 28 28 28 27 24 23 22 22 22 23 24 24 22 21 21 19 19 18 19 19 19 20 21 20 20 21 20 19 19 18 17 16 16 18 18 17 17 17 15 15 16 16 17 16 16 18 18 19 19 19 19 19 19 18 18 18 18 19 18 17 17 16 15 15 16
24 25 25 28 28 28 28 28 28 29 30 30 30 31 31 31 31 30 29 28 28 28 27 25 23 22 22 22 22 23 24 23 22 21 21 20 19 18 18 18 19 20 20 19 20 20 19 19 18 17 16 15 15 16 17 17 16 16 16 17 17 17 18 17 17 18 18 17 16 15 16 17 17 16 16 16 16 16 17 16 16 16 17 16 16
24 24 25 26 25 26 29 29 29 29 29 30 31 31 32 31 31 30 29 28 28 27 25 24 23 22 21 21 20 21 23 23 22 20 19 19 18 18 18 18 19 20 20 19 19 19 19 18 17 16 15 15 15 15 14 16 17 16 17 18 18 18 17 17 18 19 16 14 13 13 13 15 16 15 15 14 14 14 15 15 15 16 17 16 16
24 23 24 24 23 26 29 29 29 29 29 30 31 31 31 31 30 29 29 28 27 25 24 24 22 21 21 21 20 21 22 22 21 19 18 18 18 19 19 19 20 20 19 19 18 18 18 16 16 15 14 14 14 13 13 14 16 17 17 18 18 17 16 16 18 18 15 11 10 11 11 12 13 14 13 13 13 12 12 13 14 14 15 15 16
23 23 23 22 23 27 29 29 30 30 29 29 30 30 30 29 29 29 28 27 25 24 23 23 22 21 22 21 20 22 22 21 21 20 19 19 18 18 19 20 20 20 19 18 18 18 16 15 14 13 13 13 12 12 12 12 14 16 16 16 16 16 15 16 16 15 13 10 9 10 10 10 11 11 11 12 12 12 12 13 13 13 15 15 15
23 23 23 21 23 28 29 29 30 29 29 28 28 29 29 29 28 27 27 26 25 24 22 21 22 22 23 21 21 23 22 20 22 22 21 20 19 18 18 20 20 19 18 17 17 17 15 14 14 13 12 12 11 11 12 12 12 14 15 16 15 14 14 15 14 11 9 9 9 9 9 9 10 10 9 9 9 11 12 13 14 13 13 14 14
23 22 22 21 23 30 30 29 30 29 28 28 27 28 28 28 28 27 26 26 25 23 22 21 22 23 23 22 22 23 22 22 23 22 20 21 20 19 19 20 20 18 17 16 17 15 14 14 13 12 11 11 11 11 11 11 11 12 13 14 15 15 15 15 13 10 8 9 10 10 11 11 11 11 10 10 9 9 9 11 12 13 13 13 13
23 22 22 22 25 30 31 31 30 29 28 27 27 27 28 28 27 27 26 26 24 24 23 22 22 21 22 23 24 23 22 22 23 21 20 21 21 20 20 20 19 17 16 16 16 14 14 13 12 12 11 11 10 10 10 10 11 12 12 13 15 17 17 15 12 9 10 12 12 12 13 13 13 12 11 11 11 10 10 11 12 14 14 13 14
23 22 22 23 26 29 31 30 30 29 27 26 26 27 28 27 27 26 26 26 25 25 24 23 22 21 22 23 24 22 21 21 21 21 20 21 21 20 20 20 18 17 16 16 16 15 14 13 12 12 11 11 10 10 10 11 11 12 12 12 14 16 16 15 11 8 11 12 12 12 12 14 13 13 12 13 13 13 13 12 13 14 12 13 14
22 22 22 23 24 28 30 28 28 27 26 25 25 27 28 27 27 27 26 26 25 24 23 23 22 21 21 22 22 21 21 20 20 20 19 19 20 19 19 19 18 17 16 16 15 14 13 12 12 11 10 10 10 11 12 12 12 13 13 13 14 15 15 15 10 9 11 11 11 12 13 14 13 14 14 13 14 14 14 14 15 14 12 13 14
23 22 23 23 23 26 28 28 27 26 26 25 26 28 28 27 27 27 27 26 24 22 21 21 21 20 21 21 20 20 20 19 19 19 17 17 18 19 19 18 18 17 16 15 15 13 12 13 12 11 10 10 11 13 13 13 13 13 13 13 14 16 16 13 10 10 11 11 12 12 13 13 14 14 13 12 13 14 14 14 15 15 15 15 14
23 23 23 23 23 25 26 27 27 27 27 26 27 28 27 27 27 27 27 26 23 22 21 20 21 20 19 19 19 19 19 19 19 17 16 16 17 19 19 18 18 16 16 15 14 14 14 13 11 10 10 10 12 14 13 13 13 13 13 14 14 15 15 10 8 10 10 10 11 12 14 14 13 13 13 13 13 14 14 13 14 15 15 15 14
23 24 23 24 25 24 23 25 27 27 27 27 28 27 27 27 27 27 26 25 24 22 21 21 20 19 18 18 17 17 18 18 18 16 16 17 18 19 18 17 18 16 16 15 14 14 14 13 11 10 9 10 12 13 13 12 12 13 13 13 13 14 15 10 7 8 9 10 11 12 13 13 13 13 13 14 13 13 13 13 14 15 15 15 15
24 24 23 24 25 24 23 24 26 26 27 28 28 27 26 27 26 26 26 25 24 22 20 20 20 19 18 17 17 17 17 17 17 15 16 18 18 18 16 16 17 16 15 15 14 14 14 13 11 10 9 10 11 13 12 11 11 11 11 12 13 14 16 12 8 8 9 9 10 11 12 12 12 13 13 13 12 12 13 13 14 14 14 14 14
24 24 24 25 25 24 24 24 24 24 26 27 25 26 26 25 25 25 24 23 22 21 20 20 19 19 19 18 17 16 16 16 16 15 16 18 17 17 16 16 16 15 15 15 14 14 14 12 12 11 10 9 10 11 11 11 10 10 10 11 11 13 15 13 9 9 10 9 10 11 12 13 14 13 13 12 12 12 12 13 13 13 13 13 13
23 24 24 25 25 24 25 25 25 24 25 24 23 24 24 24 24 23 21 20 19 20 21 20 19 19 19 18 16 16 16 15 16 16 16 16 16 16 17 16 15 15 15 15 14 14 13 12 12 11 10 9 8 9 10 10 9 9 9 9 10 13 14 11 9 10 9 9 10 11 12 15 14 13 13 12 12 13 12 12 12 12 12 12 13
23 24 24 24 24 25 26 25 26 25 24 23 22 22 23 22 22 21 19 18 18 19 21 20 19 19 18 17 16 16 15 16 16 16 15 16 16 16 16 16 16 15 15 15 14 13 12 11 10 11 11 10 8 8 8 9 8 8 8 8 10 11 10 9 9 9 10 10 11 12 13 14 12 12 12 12 12 12 12 12 12 11 11 12 12
22 23 24 25 24 26 27 26 26 25 23 22 22 22 21 21 20 20 19 18 18 19 19 18 17 17 17 17 16 15 14 15 15 16 16 16 16 15 15 15 15 15 15 15 14 12 11 10 10 10 10 11 9 8 8 8 8 8 8 8 9 8 7 8 9 9 10 11 11 12 12 12 11 12 12 12 12 11 12 12 12 11 12 12 11
23 23 24 25 25 25 26 26 25 23 22 22 22 21 21 19 19 19 18 17 17 18 17 16 16 16 16 15 14 14 13 13 14 16 16 15 16 15 13 13 13 14 14 15 14 12 11 10 10 10 10 10 10 8 8 8 8 9 9 8 7 5 6 7 8 9 10 11 11 12 12 11 10 11 11 11 11 10 10 11 11 11 11 11 11
20 21 22 22 22 22 23 23 23 23 22 21 21 21 20 18 18 19 18 17 16 16 16 15 15 15 16 13 12 13 13 13 14 15 16 16 16 14 12 12 11 12 13 14 14 13 11 11 10 10 9 9 8 7 7 8 8 9 10 8 5 5 6 7 7 8 10 11 11 12 12 11 10 11 11 11 10 11 10 10 11 11 11 11 10
16 16 19 20 19 19 21 22 23 22 21 20 20 20 18 17 17 18 18 17 16 14 14 14 14 14 15 14 13 13 13 14 15 15 15 15 14 13 11 10 10 10 11 13 13 12 11 10 10 10 9 8 7 7 7 7 8 9 10 7 5 6 6 6 7 8 10 11 11 13 13 11 11 11 10 9 9 9 9 10 11 10 10 10 10
9 13 14 16 19 19 19 22 23 21 21 20 19 19 18 17 17 17 17 16 15 14 14 13 13 14 14 14 13 13 12 13 14 14 14 13 13 12 10 9 9 9 10 10 10 11 10 9 10 9 9 8 7 7 7 7 8 8 8 7 7 7 6 6 7 8 10 11 12 14 12 11 11 10 10 8 7 9 9 10 10 9 9 10 10
6 13 12 14 17 18 18 19 21 20 21 21 20 20 19 17 17 18 17 16 15 14 14 13 14 14 14 14 13 13 12 12 12 12 12 12 12 11 10 10 10 10 10 9 9 10 9 9 9 9 8 7 6 6 6 6 7 7 7 7 8 7 6 6 7 8 10 11 13 15 11 10 10 10 10 9 8 10 9 9 9 9 9 9 9
15 14 13 15 16 16 17 18 18 18 19 21 21 20 19 18 18 18 17 16 15 15 14 13 13 13 13 13 13 13 12 12 11 11 11 11 11 10 10 10 9 9 9 8 8 8 9 10 9 8 8 6 6 6 7 6 6 6 6 7 8 7 6 6 7 8 10 11 13 15 12 9 9 10 11 10 9 10 9 8 9 9 8 8 9
17 16 17 17 18 16 16 17 17 18 19 20 21 21 19 19 20 18 17 17 16 14 13 13 13 13 14 13 13 12 12 12 11 11 11 10 10 10 10 9 9 8 7 7 7 8 9 10 9 8 7 6 5 5 6 6 6 6 6 7 7 7 6 6 6 7 10 11 12 14 12 9 9 10 10 11 11 10 9 9 9 9 7 8 8
16 13 17 17 19 18 16 16 17 18 19 22 22 22 20 19 20 18 16 18 16 14 15 16 15 15 16 15 15 13 11 11 11 10 9 9 10 9 9 9 8 7 7 6 6 7 8 9 8 7 6 6 5 4 4 5 6 6 7 7 7 6 6 6 7 7 8 10 11 12 11 9 8 9 10 11 11 10 10 9 9 8 7 8 8
28 16 14 16 19 20 18 16 18 18 17 20 21 21 19 17 18 18 17 17 15 14 17 18 17 18 19 18 18 16 12 11 10 10 9 10 10 9 9 8 7 7 6 6 7 8 7 7 7 6 6 5 5 4 4 5 6 6 6 7 7 6 6 6 6 7 8 9 11 11 10 8 8 9 9 9 9 9 9 9 9 8 8 8 8
42 30 20 20 20 22 20 16 17 18 16 16 19 19 18 18 17 17 17 17 16 15 16 15 14 17 18 16 16 16 14 12 11 10 10 10 10 9 9 8 8 7 6 6 8 8 6 6 6 6 5 5 5 4 4 4 4 5 6 6 6 6 6 6 6 7 7 9 11 10 9 10 10 9 8 8 8 8 8 10 10 9 7 7 7
36 37 26 23 22 22 20 17 15 17 17 15 16 17 18 19 17 16 17 17 17 16 17 16 12 14 15 13 13 13 13 12 12 11 10 11 11 10 10 9 9 7 6 6 7 7 5 5 6 6 5 4 5 4 3 3 3 3 4 5 6 6 6 6 7 7 7 9 11 9 9 10 10 9 8 7 7 7 7 8 10 9 8 7 7
19 32 32 30 28 23 20 20 17 17 22 19 18 19 17 17 15 15 17 17 16 15 17 18 14 13 14 13 12 12 12 12 12 11 11 12 11 11 11 10 9 7 7 8 7 6 5 5 5 5 5 4 5 5 4 4 3 3 3 4 5 5 6 7 7 8 7 9 10 9 9 9 9 9 7 6 6 6 6 7 8 9 8 8 7
7 19 31 31 28 23 20 23 21 18 23 24 22 21 20 19 17 16 16 17 15 14 17 18 17 17 15 14 13 12 11 11 11 11 11 11 10 11 11 9 9 7 7 7 6 6 5 5 5 5 5 5 5 5 5 5 4 4 3 3 3 3 3 5 6 8 8 9 10 9 8 9 8 7 7 6 7 7 6 6 7 7 7 7 7
5 8 17 21 19 19 20 21 22 20 21 22 21 22 22 20 19 16 14 15 15 14 15 17 18 18 15 14 13 12 11 11 12 12 11 10 9 9 9 8 8 7 7 6 6 5 5 5 5 5 5 5 6 6 6 6 5 4 4 3 3 3 3 3 5 7 9 9 10 9 7 8 8 7 6 6 7 8 7 6 6 6 6 6 5
12 10 11 15 17 18 20 21 22 21 20 20 19 19 20 20 19 15 13 15 14 14 15 16 17 15 12 11 12 12 11 11 12 12 11 9 9 8 7 8 8 7 7 6 6 5 5 5 4 4 5 6 6 6 6 6 6 5 4 4 3 3 3 3 6 7 8 9 9 9 8 8 7 7 7 6 7 9 8 6 6 5 5 5 4
11 12 13 16 18 19 21 21 19 18 18 20 19 18 19 19 17 15 15 17 15 15 17 16 14 11 10 11 12 12 12 12 12 11 11 9 8 8 7 8 8 7 7 6 6 5 5 5 5 4 4 5 6 7 7 7 6 6 5 5 4 4 3 4 6 7 7 7 7 6 7 7 7 6 6 6 7 8 7 6 7 7 6 5 5
10 13 14 16 19 20 20 19 18 17 17 20 20 19 19 17 18 17 16 17 16 15 16 14 12 11 11 11 12 12 12 12 12 11 10 9 8 8 8 8 7 6 6 6 6 6 5 6 5 4 3 4 6 7 7 7 7 6 6 5 5 4 4 4 6 7 6 5 5 5 5 6 6 5 6 6 7 7 7 6 6 7 7 6 5
9 11 13 15 18 18 18 17 18 18 16 18 18 18 19 17 17 16 14 16 16 13 13 12 10 10 11 12 13 14 13 12 12 10 9 8 8 7 8 8 7 7 6 6 6 6 5 5 6 5 4 4 5 7 7 8 7 7 7 6 5 5 5 5 5 6 5 4 5 4 4 5 5 5 5 6 7 6 4 4 5 6 6 6 7
9 11 13 16 15 16 18 16 16 17 15 16 18 19 22 19 14 13 13 15 15 11 10 10 10 10 10 11 13 13 12 11 11 10 9 8 8 7 8 7 7 6 6 6 6 6 5 6 6 6 7 6 6 7 8 9 9 8 8 7 6 6 5 5 5 5 6 5 6 5 4 4 4 4 4 5 6 5 3 3 3 5 5 5 6
10 12 14 16 15 15 20 18 15 16 14 15 18 20 21 19 14 14 14 14 14 12 11 10 10 10 9 9 10 10 11 11 11 10 9 8 8 7 7 7 6 5 5 6 6 5 6 6 6 7 7 8 7 8 9 10 9 8 7 7 7 6 5 5 5 5 5 5 6 5 5 5 4 4 4 5 5 3 3 3 2 3 3 4 5
11 13 14 16 18 17 20 20 15 14 14 16 18 19 20 19 16 16 15 14 14 13 11 11 10 10 10 9 8 9 9 10 10 9 8 7 8 7 7 6 6 5 5 6 6 6 6 6 7 7 7 7 7 8 9 8 6 7 7 7 6 6 5 4 4 5 5 5 6 5 5 4 4 4 4 4 5 3 3 3 2 2 1 1 3
11 12 13 15 17 18 19 19 18 16 15 15 18 20 20 17 15 17 16 14 14 13 11 11 10 11 11 9 8 8 8 8 9 9 8 7 7 7 7 6 6 6 6 6 6 6 6 6 7 7 7 7 6 7 7 5 4 6 6 5 5 5 4 3 5 6 5 5 6 5 5 4 4 4 4 3 4 3 3 3 2 2 1 0 1
11 12 13 14 15 15 17 20 20 16 13 16 20 20 17 15 13 15 14 11 11 11 10 10 10 11 11 9 8 8 8 8 8 9 8 7 8 7 7 7 7 7 7 7 6 6 7 7 7 6 6 6 6 7 6 3 2 4 5 3 3 4 3 5 7 7 6 6 6 5 5 5 4 4 4 4 3 3 3 3 2 2 1 1 1
11 11 13 14 13 13 15 19 20 15 15 20 21 18 17 16 13 14 13 11 11 11 10 10 11 11 10 10 9 9 9 8 8 8 7 7 8 7 7 7 7 7 7 6 6 6 7 7 7 7 6 5 5 7 5 3 3 3 2 1 2 3 1 6 8 5 5 6 6 5 5 5 5 4 4 4 4 3 3 3 2 1 1 1 1
10 10 12 12 13 13 13 15 18 18 19 21 19 17 18 17 15 16 15 14 13 12 12 12 11 11 10 9 9 9 9 8 8 7 7 7 7 8 7 8 8 8 7 6 6 6 6 7 7 6 6 5 5 6 6 5 4 3 1 1 1 3 1 7 6 3 4 5 6 5 5 4 4 4 4 4 4 4 4 3 3 2 2 1 1
9 9 10 10 11 13 13 13 14 15 18 20 20 20 19 17 16 16 15 14 13 11 11 12 11 11 10 10 9 9 9 8 7 7 7 7 7 8 8 7 7 8 8 7 6 6 6 6 6 5 5 5 6 6 7 6 5 4 3 1 0 2 2 5 4 5 5 4 5 6 6 5 5 5 5 5 5 4 4 3 3 3 3 3 3
10 10 9 9 11 12 11 11 11 12 16 20 21 20 17 16 16 15 13 12 11 11 11 11 11 11 11 11 10 10 9 8 7 7 7 7 7 7 7 7 7 7 8 7 6 6 6 6 5 5 4 5 5 5 5 7 7 6 5 3 2 1 3 3 4 7 6 5 6 6 7 7 6 5 5 5 5 4 4 4 4 5 5 5 6
7 9 10 9 11 11 8 8 8 10 14 16 16 15 15 16 16 13 11 11 10 11 11 11 11 11 12 11 10 10 9 8 8 7 8 8 7 8 7 7 7 6 6 6 6 6 6 6 5 5 4 4 5 4 4 7 7 7 7 7 5 5 4 3 4 6 5 5 6 6 8 8 7 6 5 5 4 4 4 5 5 6 5 6 7
8 9 11 10 11 10 8 8 8 8 11 12 12 12 12 13 13 11 10 10 11 12 11 11 12 13 12 12 10 10 9 9 8 8 8 7 7 7 7 6 6 5 4 4 5 5 5 5 4 5 5 4 5 5 5 7 7 6 6 7 7 7 6 5 5 4 4 5 5 7 9 8 7 7 5 5 5 5 6 6 7 7 8 8 8
16 14 13 12 12 11 10 10 9 9 10 10 11 11 11 10 9 9 10 11 12 13 13 13 14 13 12 11 10 9 9 9 9 8 8 7 7 7 6 6 5 4 3 3 3 3 3 3 4 4 5 5 5 6 6 6 7 7 7 8 9 7 5 5 6 6 5 5 5 8 9 8 8 7 6 6 6 7 9 9 9 9 10 11 11
Wind_Direction
154 154 155 163 161 159 158 158 160 158 159 160 162 162 160 159 159 159 158 157 155 151 147 148 146 148 150 148 148 146 144 142 139 136 136 133 129 128 129 127 125 125 123 121 120 119 118 116 112 108 103 95 94 93 94 96 98 103 103 110 114 101 91 96 96 88 85 88 90 92 92 92 90 90 91 91 91 88 86 82 78 74 74 79 80
156 153 154 162 160 160 158 157 157 157 159 158 160 161 161 160 159 159 159 157 154 150 148 148 146 148 148 147 148 146 142 139 137 136 137 135 133 132 132 130 129 128 124 123 122 122 119 118 114 110 105 96 92 94 95 96 99 104 103 112 116 106 103 106 101 94 89 89 93 93 91 91 90 88 87 86 88 87 86 83 80 76 73 78 78
150 150 150 158 159 159 157 156 154 154 157 157 159 160 161 159 158 159 157 156 151 149 150 149 146 146 145 146 148 145 141 140 139 139 140 139 137 135 133 132 132 128 125 125 124 123 121 119 117 113 107 101 92 89 92 96 105 110 105 113 118 113 112 110 105 99 92 90 92 91 89 90 89 87 87 86 86 83 81 79 78 76 74 77 76
147 148 147 156 158 158 157 155 152 151 153 155 158 159 159 158 158 157 156 155 151 151 150 148 145 145 146 146 146 143 142 141 141 142 141 139 138 137 137 134 131 129 127 127 126 124 122 121 119 116 112 106 96 88 87 91 107 115 112 118 124 121 119 116 109 101 95 93 89 90 92 90 88 85 85 85 84 80 76 74 72 69 72 77 77
145 146 147 153 155 157 157 154 152 150 152 152 154 155 155 155 156 155 155 154 151 151 149 147 144 146 148 147 144 142 143 144 144 144 142 140 139 140 139 136 134 132 131 130 128 126 124 124 122 119 115 109 101 91 85 88 99 113 120 123 127 126 124 122 114 104 100 99 93 91 95 91 87 82 80 79 77 76 73 72 71 64 65 73 78
144 144 146 150 152 156 156 153 152 150 150 150 151 152 152 154 154 154 154 153 151 150 149 148 147 148 148 147 144 142 145 145 143 141 141 142 142 140 136 136 136 134 134 132 130 129 126 125 123 118 116 113 107 97 88 89 95 109 123 129 130 127 128 128 120 108 97 99 100 94 93 90 86 81 78 77 76 74 71 73 74 70 68 71 74
144 143 145 149 151 156 156 153 151 149 149 149 150 151 152 153 154 154 153 153 151 150 150 148 148 150 148 147 145 143 142 140 139 139 141 141 139 136 135 137 136 135 134 133 132 130 126 125 123 119 118 118 114 106 97 92 95 105 118 130 135 134 133 132 127 111 91 88 95 92 91 92 89 84 81 80 78 68 62 67 74 76 74 72 72
145 145 146 148 152 158 156 153 151 150 149 149 150 151 153 154 155 155 153 153 151 150 152 150 150 150 148 146 145 144 140 138 142 146 146 140 138 136 137 139 137 136 136 137 136 131 127 125 124 122 121 121 118 112 106 99 97 103 111 122 133 141 141 139 129 104 88 89 86 85 88 93 93 92 86 81 79 69 58 57 66 77 77 74 74
147 145 148 148 154 159 155 152 152 151 152 150 150 152 154 155 156 154 154 154 151 151 153 154 153 151 149 147 146 145 142 143 147 148 145 139 139 138 138 141 138 139 141 141 135 130 129 126 125 124 123 122 120 117 114 109 102 102 108 113 121 135 146 147 128 94 88 95 85 81 81 89 94 92 85 81 86 87 80 69 68 74 79 80 80
145 145 150 149 154 159 156 154 153 153 153 152 151 152 154 154 155 154 154 155 153 153 154 154 152 151 150 148 148 146 144 146 146 144 142 140 140 140 142 143 141 144 143 138 134 132 132 128 126 125 127 125 122 120 118 115 110 104 107 113 116 119 128 128 108 88 94 92 86 82 79 85 88 88 86 81 83 94 94 85 80 77 79 82 80
145 146 149 150 156 158 158 158 157 156 154 153 151 153 154 153 153 152 152 153 151 150 150 148 148 151 151 151 149 144 142 145 147 145 145 143 142 143 146 146 144 147 143 138 138 136 133 131 130 132 131 125 120 120 121 121 116 112 110 114 118 115 112 101 87 89 95 91 91 87 83 84 85 87 85 77 74 81 81 76 79 79 80 81 80
147 146 149 151 157 158 157 158 157 156 154 151 150 153 153 151 150 150 149 149 147 147 147 149 152 155 156 154 147 141 141 143 147 148 148 145 144 147 149 148 147 147 146 143 142 139 138 137 136 134 128 121 120 122 125 125 120 117 115 117 121 117 103 90 87 95 94 92 92 88 85 84 86 87 82 79 79 82 83 79 81 83 84 82 80
148 146 149 149 156 159 156 156 155 154 152 149 150 153 152 150 151 151 150 149 149 151 152 155 157 154 153 150 144 142 143 143 147 147 147 147 148 151 152 150 149 149 148 146 145 142 141 143 139 130 123 121 124 127 126 126 123 118 116 118 122 116 101 92 98 100 94 94 90 88 87 85 88 88 84 85 85 83 82 81 81 84 84 82 80
150 147 149 149 156 160 157 157 155 152 150 149 150 153 153 152 154 154 153 152 153 154 154 156 154 151 148 145 142 144 145 145 145 144 147 151 151 154 155 151 150 151 149 147 147 145 143 145 139 128 123 123 130 131 128 126 122 118 115 116 119 112 98 93 101 102 96 94 90 89 89 90 92 91 88 85 83 80 79 81 83 84 83 84 84
151 149 150 150 155 160 159 158 155 152 151 150 151 152 153 153 154 154 154 154 155 154 151 152 152 150 147 143 143 145 147 146 145 146 150 152 154 157 157 152 151 151 150 150 150 153 152 147 137 129 124 125 134 134 130 126 120 116 113 114 117 111 101 96 102 101 97 95 91 91 90 93 96 93 89 86 85 82 80 84 85 83 83 85 85
154 153 152 150 153 157 159 158 156 154 152 150 151 151 151 151 152 152 153 156 157 156 153 151 151 152 148 144 145 149 150 150 149 151 151 150 153 158 160 156 153 151 153 154 154 158 156 146 136 133 126 125 135 138 133 126 120 115 110 109 110 111 108 105 102 101 97 94 92 94 94 98 102 96 91 89 87 85 81 82 84 83 85 86 85
158 156 152 150 152 155 157 159 157 154 152 151 151 150 149 149 150 151 154 157 159 158 156 154 153 152 148 145 146 149 153 154 153 154 150 148 150 155 162 162 156 153 156 158 158 159 155 146 141 140 130 126 133 140 138 128 122 115 109 106 103 108 109 102 97 97 95 93 93 94 96 101 102 96 94 91 87 86 83 82 85 85 86 87 88
162 160 155 151 152 155 155 158 158 153 152 151 151 150 149 149 150 152 154 157 159 158 159 158 156 153 150 148 146 148 153 155 154 155 151 149 150 150 159 168 162 156 158 160 160 158 155 151 147 145 136 128 131 139 142 135 127 119 113 104 101 104 100 94 92 94 94 90 90 92 97 102 98 96 96 91 88 87 85 85 86 86 87 89 89
166 163 158 153 153 156 155 156 155 153 152 151 151 152 150 150 151 153 154 155 156 157 159 159 157 155 154 151 148 148 151 152 152 154 152 150 150 148 155 168 169 162 162 162 162 159 156 155 151 147 140 133 130 136 142 141 134 126 116 107 103 94 83 85 93 94 91 86 88 93 100 104 101 101 99 93 93 90 88 86 86 87 88 89 89
169 165 160 156 156 157 155 155 156 154 152 150 151 153 153 152 153 154 154 155 154 154 155 155 155 154 154 153 149 148 149 150 150 152 154 153 151 150 153 162 169 167 167 167 164 160 157 156 153 150 145 139 134 133 138 144 144 133 122 113 99 80 73 87 94 90 88 85 89 96 100 103 103 102 98 95 95 93 91 88 87 87 86 88 89
169 167 164 160 159 159 158 158 158 155 151 151 149 151 155 154 155 156 155 154 153 153 152 151 152 154 154 152 148 146 147 149 150 154 158 157 153 154 153 156 164 167 170 170 166 163 161 158 157 156 149 144 139 134 134 144 151 142 133 116 91 78 88 97 94 92 92 89 91 98 102 104 105 102 98 94 93 93 95 92 90 90 87 86 86
172 171 167 163 161 161 161 158 156 153 152 151 148 148 152 152 152 154 154 154 155 155 154 152 153 155 153 150 148 146 148 150 153 155 157 158 156 156 153 151 157 165 170 170 169 168 166 163 162 162 157 150 142 137 136 143 155 153 143 120 97 103 108 98 97 97 94 91 94 104 106 105 102 99 98 96 93 92 93 94 94 95 92 90 88
176 174 168 162 159 159 160 156 153 153 154 151 148 147 148 150 150 150 153 154 156 158 157 155 154 153 152 153 154 152 153 153 154 151 151 153 154 155 152 151 157 165 169 167 170 172 171 169 166 166 165 157 148 152 151 147 158 159 152 138 131 132 111 102 102 98 97 95 100 109 109 105 102 100 98 96 96 92 90 93 93 93 93 92 91
187 172 166 158 153 155 157 155 151 152 154 149 147 147 146 149 150 149 153 153 154 156 157 156 154 155 155 157 156 155 156 153 152 149 148 149 151 157 157 158 163 169 169 164 168 172 171 170 169 169 169 171 173 179 171 161 165 166 167 167 157 139 122 116 109 103 103 103 106 110 110 106 103 104 100 97 102 100 97 98 97 97 96 95 92
202 163 159 157 153 151 154 156 153 152 151 146 146 150 150 150 151 151 151 152 154 155 158 158 158 160 156 156 156 156 155 150 150 150 149 148 149 157 161 162 165 167 165 162 167 169 168 169 171 173 176 186 196 196 187 176 174 176 179 173 159 149 142 129 119 114 111 114 116 112 112 108 109 107 89 84 103 107 102 100 103 104 102 101 97
181 156 151 147 151 151 155 158 155 154 151 147 150 154 155 153 152 151 149 153 158 157 161 161 160 162 158 156 155 152 149 145 147 149 148 148 149 153 157 160 162 165 166 168 170 167 172 176 177 178 177 187 199 203 199 190 184 183 180 169 164 161 156 138 128 122 115 118 117 113 113 108 112 101 70 67 99 110 108 104 105 103 100 102 102
154 152 154 149 156 160 161 161 159 157 154 154 156 157 157 153 152 153 152 153 157 159 161 163 163 163 160 156 153 148 144 144 146 147 147 148 150 151 153 155 157 162 166 170 167 166 174 173 171 171 170 182 199 202 198 198 193 186 177 171 170 164 158 145 133 125 121 124 120 117 118 106 104 95 69 70 97 111 112 106 105 107 105 102 102
140 147 156 160 165 171 169 164 165 161 157 158 160 160 156 153 154 154 154 155 157 162 163 162 162 161 161 157 152 148 144 145 147 148 150 150 150 149 149 151 154 157 161 163 161 164 170 165 162 163 168 177 187 193 191 192 191 187 177 171 172 165 158 148 136 130 125 129 127 123 120 105 102 104 87 80 89 102 108 106 108 113 110 105 108
125 157 164 169 169 175 178 171 172 169 162 162 163 163 157 153 156 154 154 158 160 168 170 163 161 163 163 162 156 149 147 148 148 151 152 149 148 147 147 148 149 151 156 158 159 161 163 161 160 159 164 171 173 179 181 185 188 187 179 175 178 172 164 153 142 136 131 137 135 128 126 111 104 114 104 89 85 91 99 104 111 112 101 97 105
145 169 176 178 178 178 180 180 179 174 166 165 164 161 155 152 155 157 157 159 162 168 170 166 166 167 165 168 164 154 150 150 150 153 151 149 150 148 147 145 145 148 151 159 165 163 160 162 164 163 165 168 166 167 173 181 185 184 183 181 182 179 171 163 155 145 141 143 136 131 137 124 102 101 105 102 94 92 95 97 105 108 95 89 95
152 160 178 186 186 184 181 182 182 178 172 165 164 160 155 153 153 158 160 159 163 166 169 170 172 174 170 171 167 157 152 151 152 154 153 154 153 150 147 144 146 148 150 161 170 166 162 164 167 166 167 166 158 159 166 174 177 176 182 181 181 183 176 171 167 157 155 148 137 139 144 129 108 94 101 114 111 105 100 93 98 105 98 97 103
146 149 173 190 187 187 182 176 176 180 176 161 160 163 159 155 152 158 161 161 167 174 179 178 179 182 177 172 166 160 159 156 156 156 156 158 156 152 150 151 155 156 158 165 166 162 160 166 170 165 158 151 146 147 149 152 153 157 171 173 178 184 177 180 174 166 165 141 135 152 148 130 118 105 106 115 112 110 108 95 91 98 103 107 112
159 152 172 188 187 184 176 175 176 175 174 171 169 168 161 158 157 159 162 167 173 181 188 187 188 188 180 175 168 163 164 162 160 158 158 159 159 157 156 158 159 161 166 165 157 154 156 158 164 161 152 147 140 138 138 139 137 132 145 164 178 183 180 185 174 167 162 132 136 159 149 138 130 117 120 121 104 104 119 115 100 100 107 109 107
208 167 176 182 179 173 168 173 179 178 179 182 177 167 162 162 163 163 170 178 181 185 192 194 195 193 185 175 169 164 165 166 162 161 161 161 161 160 160 162 161 161 163 160 152 154 159 155 158 159 155 154 142 135 136 131 126 118 114 138 163 161 170 179 155 153 158 142 148 158 145 147 147 135 138 130 108 100 117 134 125 115 114 113 107
118 149 171 173 167 162 156 157 172 185 184 182 176 168 167 167 167 168 178 187 188 192 196 197 199 198 187 172 167 166 167 170 165 162 164 163 163 164 166 164 160 162 165 163 158 161 163 158 163 162 157 156 142 132 128 115 107 99 88 100 123 135 155 155 122 134 155 153 152 150 142 150 155 154 149 134 116 106 109 129 136 132 124 123 122
116 127 154 167 163 160 161 163 174 180 177 179 178 173 173 174 173 173 181 188 189 195 197 197 200 198 182 168 168 169 169 171 168 163 163 165 168 170 170 165 161 163 168 170 170 171 167 161 163 163 162 158 143 131 122 112 105 98 95 105 110 127 150 145 119 128 155 161 156 150 143 148 159 164 157 146 130 116 112 119 127 135 132 130 136
116 137 153 165 161 162 173 179 176 168 171 182 182 181 180 180 181 177 185 190 186 192 196 195 196 189 177 172 172 171 171 172 168 164 166 170 173 172 169 166 166 169 169 171 175 176 170 166 160 158 166 157 138 128 123 120 116 109 107 108 112 121 131 135 122 128 158 168 157 149 147 156 162 160 158 156 147 132 124 119 113 113 118 127 138
113 142 157 161 158 164 172 171 170 172 176 180 181 188 187 183 181 178 188 194 187 187 194 195 188 181 179 177 174 171 173 174 170 168 171 175 172 168 169 168 169 171 169 172 174 171 170 171 163 157 165 156 140 134 127 122 119 113 109 106 111 115 113 123 120 127 155 160 143 146 160 171 165 153 158 162 160 148 132 127 122 117 116 119 129
124 143 158 160 158 165 167 161 168 174 170 168 173 185 187 182 177 177 186 190 186 184 190 192 182 181 185 179 173 171 172 173 172 173 177 175 169 167 170 172 173 173 173 175 171 169 172 169 165 160 150 136 131 132 124 118 117 113 112 107 104 107 112 129 131 132 150 145 128 134 150 161 155 147 154 156 158 155 137 128 127 129 128 118 115
142 149 160 165 162 162 165 164 169 170 159 160 171 179 183 181 173 176 183 182 184 183 184 188 183 189 194 182 172 168 170 172 173 176 177 172 169 168 172 175 176 176 176 177 174 174 174 165 162 159 146 132 131 133 125 122 121 115 112 106 101 104 110 128 139 143 154 145 125 124 130 140 142 142 146 148 159 168 159 137 105 117 135 134 123
155 160 165 170 167 162 169 173 171 168 159 161 173 177 178 178 175 181 184 180 183 183 182 187 186 190 193 184 173 168 170 173 173 174 176 173 168 165 170 175 176 178 180 181 180 175 172 166 160 160 155 145 143 144 138 134 131 125 122 115 106 105 111 130 141 138 143 125 116 124 128 131 141 148 148 142 153 172 153 149 127 120 151 156 135
166 168 170 173 171 164 172 179 177 169 161 164 176 180 178 177 177 184 185 181 181 184 185 185 185 187 187 184 178 173 171 173 174 175 175 173 166 164 168 174 177 180 182 180 178 172 170 170 164 164 163 153 149 152 155 158 155 146 142 133 128 123 117 144 151 135 137 122 119 128 122 130 147 148 153 139 142 154 138 146 154 133 182 166 112
169 172 172 174 174 168 168 172 178 177 169 170 177 182 182 177 178 184 183 181 181 184 184 181 181 182 182 182 180 178 175 174 177 177 174 172 167 165 168 174 179 180 181 177 174 174 173 176 175 170 163 154 150 156 169 201 190 158 161 160 160 151 139 170 153 125 129 124 123 136 132 146 155 142 155 155 147 150 139 140 141 128 148 14 56
170 175 172 171 176 177 170 167 174 179 175 177 181 186 185 177 180 181 177 178 178 176 176 175 177 178 179 182 180 178 178 178 181 179 176 173 167 165 167 171 176 179 181 180 179 180 179 181 183 178 171 161 156 161 171 213 201 171 183 188 190 189 171 161 137 109 115 122 119 131 131 142 151 143 154 163 160 154 142 137 132 130 143 101 80
176 179 172 170 173 179 177 173 176 180 178 180 183 186 182 176 177 173 171 173 169 167 171 174 177 177 177 179 177 177 179 179 182 182 177 173 168 165 167 168 173 177 180 185 184 184 185 186 185 184 183 175 165 163 165 187 192 200 233 205 192 225 159 144 138 108 113 120 111 119 121 127 138 140 145 150 157 155 148 145 134 128 143 142 133
182 179 171 169 167 166 165 169 175 177 174 174 177 176 174 174 173 170 172 173 168 168 172 173 174 176 178 177 175 175 177 175 176 175 172 174 171 165 167 170 172 172 175 184 187 186 189 187 187 188 188 186 176 167 168 184 187 186 224 61 294 294 145 152 159 132 118 112 107 113 114 121 129 132 132 129 133 133 130 134 143 148 139 133 153
179 169 164 166 164 158 154 159 169 167 161 161 165 170 172 174 174 173 174 172 167 169 173 173 172 173 175 172 172 171 171 170 169 169 168 171 171 166 168 171 173 174 174 183 189 189 188 184 188 193 192 188 186 184 177 179 187 189 193 153 348 312 172 170 170 151 147 123 119 119 115 121 124 121 120 114 111 112 113 123 138 130 102 88 103
168 158 155 163 163 157 148 151 161 159 159 163 167 174 178 179 179 177 175 171 165 164 168 171 170 169 168 167 167 165 165 166 162 165 167 168 169 166 165 166 169 174 177 183 187 184 179 177 184 190 193 185 189 205 186 179 192 187 184 198 192 159 169 194 193 175 169 140 135 131 123 124 116 106 104 103 101 97 105 119 120 106 95 95 96
155 153 150 156 156 153 144 144 153 156 166 173 175 184 186 181 179 174 170 166 158 157 160 164 165 163 161 162 162 160 159 161 162 165 167 167 166 162 161 161 160 168 177 181 179 175 170 171 178 180 186 186 192 214 194 187 201 186 179 196 192 176 179 190 202 197 175 145 148 144 138 134 116 101 99 105 103 95 100 107 109 106 102 103 100
169 162 149 153 151 147 148 156 167 166 172 182 184 189 191 184 178 169 163 157 150 154 158 161 163 161 158 158 161 163 161 159 161 164 164 162 159 155 155 153 153 163 173 173 171 171 173 179 184 179 180 186 191 203 200 196 205 198 190 198 195 189 187 179 189 197 169 154 152 148 152 152 131 111 98 101 106 110 110 105 104 107 106 102 98
169 162 150 155 152 147 152 161 169 171 180 189 188 189 192 187 177 166 162 157 154 159 162 163 162 157 156 158 160 162 161 160 160 157 157 157 153 149 149 148 147 154 158 161 166 171 189 197 200 194 188 188 188 194 203 205 205 202 200 208 213 209 196 182 183 184 173 162 150 146 151 148 134 120 108 108 115 120 117 111 108 106 105 100 96